Home > Weather > Port Sudan > Past weeks

Flag for Sudan Past Weather in Port Sudan, Sudan — Yesterday and Last 2 Weeks

Now
100 °F

Sunny.


Feels Like: 105 °F
Forecast: 80 / 107 °F
Wind: 10 mph from Northwest

Location: Jeddah King Abdul Aziz International Airport

Current Time: Jun 25, 2016 at 11:58:17 AM

Latest Report: Jun 25, 2016 at 11:00 AM


Visibility: 10 mi

Pressure: 29.59 "Hg

Humidity: 33%

Dew Point: 66 °F

Location of Port SudanLocation

Past Weather in Port Sudan — Graph

°F

Port Sudan Temperature Yesterday

Maximum temperature yesterday: 108 °F (at 4:00 PM)
Minimum temperature yesterday: 82 °F (at 3:00 AM)
Average temperature yesterday: 95 °F

High & Low Weather Summary for the Past Weeks

 TemperatureHumidityPressure
High108 °F (Jun 16, 1:00 PM)89% (Jun 17, 6:00 AM)29.77 "Hg (Jun 17, 6:00 AM)
Low81 °F (Jun 18, 5:00 AM)10% (Jun 24, 4:00 PM)29.56 "Hg (Jun 17, 2:00 AM)
Average93 °F45%29.64 "Hg
* Reported Jun 10 10:00 AM — Jun 25 10:00 AM, Port Sudan, Weather by CustomWeather, © 2016

Note: Actual official high and low records may vary slightly from our data, if they occured in-between our weather recording intervals... More about our weather records

Advertising

Port Sudan Weather History for the Previous 24 Hours

Scroll right to see more
 ConditionsComfort  
Time TempWeatherWind HumidityBarometerVisibility
10:00 AM
Sat, Jun 25
99 °FSunny.9 mph37%29.59 "Hg10 mi
9:00 AM93 °FSunny.9 mph49%29.59 "Hg10 mi
8:00 AM88 °FSunny.7 mph62%29.59 "Hg10 mi
7:00 AM86 °FSunny.7 mph75%29.59 "Hg10 mi
6:00 AM86 °FSunny.6 mph75%29.56 "Hg10 mi
5:00 AM84 °FClear.7 mph74%29.56 "Hg10 mi
4:00 AM86 °FClear.7 mph66%29.56 "Hg10 mi
3:00 AM86 °FClear.8 mph66%29.56 "Hg10 mi
2:00 AM88 °FClear.5 mph38%29.56 "Hg10 mi
1:00 AM88 °FClear.5 mph38%29.56 "Hg10 mi
12:00 AM90 °FClear.5 mph31%29.59 "Hg10 mi
11:00 PM
Fri, Jun 24
91 °FClear.7 mph28%29.59 "Hg10 mi
10:00 PM97 °FClear.5 mph20%29.59 "Hg10 mi
9:00 PM99 °FClear.7 mph19%29.56 "Hg10 mi
8:00 PM99 °FClear.7 mph21%29.56 "Hg10 mi
7:00 PM100 °FSunny.7 mph18%29.56 "Hg10 mi
6:00 PM104 °FSunny.14 mph14%29.56 "Hg10 mi
5:00 PM106 °FSunny.9 mph12%29.56 "Hg10 mi
4:00 PM108 °FSunny.12 mph10%29.56 "Hg10 mi
3:00 PM106 °FSunny.14 mph12%29.56 "Hg10 mi
2:00 PM106 °FSunny.14 mph14%29.59 "Hg10 mi
1:00 PM106 °FSunny.16 mph18%29.59 "Hg10 mi
12:00 PM104 °FSunny.7 mph19%29.59 "Hg10 mi
11:00 AM102 °FSunny.7 mph24%29.62 "Hg10 mi
Weather by CustomWeather, © 2016

See weather overviewHow to use our weather pages